STARLINK-34760, 65359

Orbit data source: Space-Track

STARLINK-34760, 65359 is a payload satellite owned by SpaceX/Seattle (US) in LEO that was launched on Thu, 28 Aug 2025 UTC via an FALCON 9 launch vehicle from the Air Force Eastern Test Range (AFETR). Payload-class satellites include a variety of spacecraft equipped with specific instruments for various scientific and technological missions. These include communications satellites like Starlink; space stations such as the ISS; scientific satellites like the Hubble; Earth observation satellites from companies like Planet Labs, Umbra, and HawkEye 360; GPS; miniature CubeSats for education and research; and military/defense satellites.

Loading next visibility...
Identifier
65359, 2025-190J
Orbit
LEO
Country
Flag of USUS
Related business
Manufacturer
SpaceX/Seattle
Mission
Operational Commercial Communications
Bus & Motor
STARLINK V2MO, Unknown motor
Mass
575 kg wet, ~530 kg dry
Launch date (UTC)
2025-08-28 (10 months ago)
Launch vehicle
FALCON 9
Launch site
Air Force Eastern Test Range (AFETR)
Object type
Payload
Rocket body
Debris
Shape & HBR
Box + 2 Pan, 17.7 m
Radar Cross Section
36.964 m², Large (>1 m²)

Expand to show TLE details & history
Last TLE update: 22 hours ago

TLE from 22 hours ago
0 STARLINK-34760
1 65359U 25190J   26170.94339327  .00009709  00000-0  33955-3 0  9994
2 65359  53.1584  53.0086 0001070 120.8413 239.2694 15.30195328 44948
Epoch: 2026-06-19T22:38Z
TLE epoch observation values (Epoch: 2026-06-19T22:38:29.178Z)
Latitude
0.00005°
Longitude
165.22194°
Altitude
476.503 km
Speed
7.629 km/s
True Right ascension
03h 32m 02s
True Declination
0° 00' 00"
Sunlit
Object was in daylight at epoch
Visualization orbit readout
Latitude
Unknown
Longitude
Unknown
Altitude
Unknown
Speed
Unknown
Apparent Right ascension
Unknown
Apparent Declination
Unknown
Sunlit
N/A
Visualization observer readout
Local Sidereal Time
07:19:42
Azimuth
Unknown
Elevation
Unknown
Doppler factor
Unknown
Orbital elements
Apogee altitude
476.219 km
Perigee altitude
474.752 km
Semi-major axis
6,853.623 km
Eccentricity
0.00011
Inclination
53.1584°
RAAN
53.0086°
Arg. of periapsis
120.8413°
True anomaly
239.25886°
Mean anomaly
239.2694°
Eccentric anomaly
239.26413°
Mean motion
3.82528 °/min
Orbital period
94.11 mins
BSTAR
0.00033955
Loading maneuver chart data...
Computing Atmospheric mass density...
Loading historical data...
Loading historical data...
Loading historical data...
Loading historical data...
Loading historical data...
Loading historical data...
Loading historical data...

Documentation

Showing up to 5 results
|